sat.trackr.live / text

‹ back to catalog

ONEWEB-0094

NORAD 45450 · 2020-020AC

PAYLOAD ACTIVE UNKNOWN

§ Identity

Operator
Country
UK
Launch date
2020-03-21
Launch site
TYMSC
Launch vehicle
Mass (kg)
RCS (m²)

Purposes: comms

External: N2YO · Heavens-Above · Gunter

§ Orbital elements

Epoch: 2026-05-25T02:50:24.398016Z

Period
109.29 min
Inclination
87.9162°
Eccentricity
0.0001787
Mean motion
13.17649745 rev/d
Perigee alt
1,192.4 km
Apogee alt
1,195.1 km
Semi-major
7,571.8 km
B*
-6.4948e-6
RAAN
10.4347°
Arg perigee
77.1771°
Mean anomaly
282.9560°
Rev number
30,327

§ Raw data

ONEWEB-00941 45450U 20020AC  26145.11833794  .00000010  00000+0 -64948-5 0  99932 45450  87.9162  10.4347 0001787  77.1771 282.9560 13.17649745303279

JSON: /api/v1/satellites/45450 · /tle

For live sub-satellite position, see the globe view (requires WebGL).

§ Visibility from observer

Set your observer location to see the next 7 days of passes ≥ 10°. The values pass through the URL so the page stays shareable.

No JS? Fill the form by hand. The geolocation button needs JavaScript.